[[{"header":{"parameterUnit":"m.s-1","parameterCategory":2,"la1":30.2991,"la2":30.254,"lo1":-89.0895,"lo2":-89.0444,"dy":0.0017,"dx":0.0017,"nx":28,"ny":28,"refTime":"2023-09-04T21:00:00:Z","depth":"0","parameterNumber":2,"parameterNumberName":"U-component_of_CURRENTS"},"data":[0,0,0,0,0,0,0,0,0,0,0,0,0,0,0,0,0,0,0,0,0,0,0,0,0,0,0,0,0,0,0,0,0,0,0,0,0,0,0,0,0,0,0,0,0,0,0,0,0,0,0,0,0,0,0,0,0,0,0.2413,0.2413,0,0.2414,0.2414,0.2414,0.2399,0.2398,0.2398,0.2398,0.2355,0.2354,0.2354,0,0,0,0,0,0,0,0,0,0,0,0,0,0.241,0.241,0.2413,0.2413,0.2414,0.2414,0.2414,0.2414,0.2399,0.2398,0.2398,0.2398,0.2356,0.2355,0.2353,0,0,0,0,0,0,0,0,0,0,0,0,0,0.2409,0.241,0.2413,0.2408,0.2407,0.2414,0.2414,0.2414,0.2399,0.2398,0.2398,0.2398,0.2356,0.2355,0.2353,0.2351,0,0,0.2349,0.2348,0,0,0,0,0,0,0,0,0.2409,0.2409,0.2408,0.2408,0.2408,0.2408,0.2397,0.2391,0.2399,0.24,0.2398,0.2398,0.2371,0.2368,0.2366,0.2349,0.2347,0.2349,0.2348,0.2347,0.2347,0,0,0,0,0,0,0,0.2409,0.2409,0.2411,0.2409,0.2408,0.2409,0.2409,0.2396,0.2384,0.24,0.2399,0.2403,0.237,0.2368,0.2365,0.2346,0.2349,0.2348,0.2347,0.2346,0.2374,0.2376,0,0,0,0,0,0,0.2413,0.2409,0.2411,0.2411,0.241,0.241,0.2409,0.2406,0.2385,0.2383,0.2403,0.2402,0.237,0.2367,0.2363,0.2388,0.2347,0.2346,0.2345,0.2373,0.2375,0.2376,0,0,0,0,0,0,0.2413,0.2413,0.2411,0.2412,0.2412,0.241,0.2408,0.2407,0.241,0.2389,0.2385,0.2409,0.237,0.2365,0.2368,0.2385,0.2345,0.2344,0.2371,0.2373,0.2376,0.2419,0,0,0,0,0,0,0.2413,0.2413,0.2411,0.2412,0.2413,0.2423,0.2408,0.2407,0.2414,0.2413,0.2393,0.2388,0.2369,0.2371,0.2367,0.2383,0.2343,0.2369,0.2372,0.2375,0.2416,0.2423,0.2429,0,0,0,0,0,0.2412,0.2412,0.2411,0.2412,0.2411,0.2424,0.2424,0.242,0.2415,0.2421,0.2413,0.2389,0.2387,0.237,0.2366,0.2382,0.2367,0.2371,0.2375,0.2413,0.2422,0.2429,0,0,0,0,0,0,0.2413,0.241,0.241,0.2409,0.2421,0.2422,0.2427,0.2427,0.2426,0.2424,0.2402,0.2397,0.2412,0.2394,0.2377,0.2403,0.2376,0.2379,0.2407,0.2415,0.2421,0.243,0.2342,0,0,0,0,0,0.2412,0.2408,0.2416,0.2417,0.2424,0.2428,0.2433,0.2434,0.2435,0.2434,0.2422,0.2416,0.2423,0.2416,0.2417,0.242,0.2426,0.2432,0.2439,0.2444,0.2451,0.2483,0.2493,0.2388,0.2388,0.2388,0,0,0.2411,0.2412,0.2408,0.2417,0.2423,0.2434,0.243,0.2443,0.2453,0.2429,0.2436,0.2439,0.2433,0.2446,0.245,0.243,0.248,0.2449,0.2453,0.2457,0.2488,0.2498,0.2507,0.2391,0.239,0.239,0,0,0.2409,0.2411,0.2408,0.242,0.2436,0.2443,0.2451,0.246,0.2467,0.2478,0.2475,0.2492,0.2482,0.249,0.2491,0.2535,0.252,0.2535,0.2563,0.2594,0.2603,0.261,0.2638,0.2648,0.253,0.253,0.253,0,0.2415,0.2406,0.2413,0.2421,0.2433,0.2449,0.246,0.2473,0.2482,0.2496,0.2486,0.2514,0.2507,0.2537,0.2556,0.2548,0.2563,0.2529,0.2602,0.2609,0.2617,0.2643,0.2653,0.2532,0.2532,0.2532,0.2532,0,0.2405,0.2409,0.2414,0.2425,0.2443,0.2457,0.2481,0.2499,0.2511,0.2524,0.2562,0.2566,0.2582,0.2589,0.2582,0.2634,0.2629,0.2612,0.2578,0.263,0.2655,0.2664,0.2536,0.2535,0.2534,0.2534,0,0,0.2398,0.2404,0.2407,0.2413,0.2447,0.2459,0.2493,0.2527,0.2558,0.2571,0.2611,0.2633,0.2645,0.265,0.2652,0.2679,0.2745,0.2669,0.2669,0.269,0.2818,0.2814,0.2824,0.274,0.2742,0.2743,0.2818,0,0.2394,0.2397,0.2408,0.2425,0.2435,0.247,0.2503,0.2539,0.2577,0.2621,0.2645,0.2682,0.2665,0.2685,0.2711,0.2743,0.2772,0.2726,0.2771,0.2772,0.2757,0.2836,0.2762,0.2823,0.2827,0.2829,0.283,0,0.2374,0.2386,0.239,0.2429,0.2439,0.2455,0.2521,0.2553,0.2626,0.2663,0.2708,0.2729,0.2781,0.2758,0.2827,0.2799,0.2816,0.2833,0.2836,0.2823,0.2786,0.2772,0.284,0.2789,0.2845,0.2844,0.2842,0,0.2345,0.2373,0.2372,0.2383,0.2429,0.2449,0.2486,0.2561,0.2598,0.2695,0.273,0.2795,0.283,0.2864,0.2897,0.2869,0.2977,0.2934,0.2944,0.2944,0.2886,0.2877,0.2904,0.2987,0.2986,0.2986,0.2986,0,0.2321,0.2325,0.2356,0.2354,0.2378,0.2431,0.2473,0.2532,0.2621,0.2673,0.2742,0.2794,0.2861,0.2918,0.2934,0.2984,0.3004,0.2975,0.2973,0.29,0.2893,0.2848,0.2807,0.2989,0.2988,0.2988,0.2987,0,0.2268,0.2284,0.229,0.2338,0.2351,0.2369,0.2439,0.2484,0.2578,0.2651,0.2681,0.2806,0.2901,0.2959,0.3044,0.3033,0.3004,0.3086,0.3001,0.2988,0.2928,0.2892,0.279,0.2703,0.3105,0.3105,0.3106,0,0.2229,0.2225,0.2256,0.2261,0.2276,0.2312,0.2344,0.2446,0.2505,0.2649,0.2687,0.2812,0.2901,0.3035,0.3076,0.3133,0.3024,0.3074,0.3002,0.2941,0.2901,0.2755,0.2677,0.2944,0.2943,0.2942,0.2942,0,0.2169,0.2179,0.2185,0.2197,0.2217,0.2237,0.23,0.2331,0.2464,0.2538,0.2667,0.2752,0.2924,0.2984,0.3077,0.3087,0.2936,0.3058,0.3017,0.2807,0.2628,0.2537,0.2877,0.2935,0.2935,0.2936,0.2936,0.2937,0.212,0.2112,0.2121,0.2123,0.2143,0.2154,0.2148,0.2237,0.2301,0.2398,0.2566,0.267,0.2854,0.2988,0.2979,0.2957,0.2895,0.2888,0.2861,0.2727,0.2604,0.2937,0.2978,0.2979,0.2979,0.298,0.2981,0,0.2058,0.2052,0.2053,0.2044,0.2029,0.2069,0.2108,0.2099,0.2136,0.2298,0.2404,0.259,0.2683,0.2797,0.2883,0.2795,0.2623,0.2718,0.2498,0.2439,0.2774,0.2731,0.2695,0.2695,0.2695,0.2695,0.2695,0.2695,0.2023,0.1989,0.1985,0.1925,0.192,0.1871,0.1867,0.1881,0.1973,0.2074,0.2195,0.2334,0.2605,0.2764,0.2748,0.2672,0.2445,0.234,0.23,0.2567,0.2579,0.2591,0.2543,0.2468,0.2468,0.1867,0.1863,0.186]},{"header":{"parameterUnit":"m.s-1","parameterCategory":2,"la1":30.2991,"la2":30.254,"lo1":-89.0895,"lo2":-89.0444,"dy":0.0017,"dx":0.0017,"nx":28,"ny":28,"refTime":"2023-09-04T21:00:00:Z","depth":"0","parameterNumber":3,"parameterNumberName":"V-component_of_CURRENTS"},"data":[0,0,0,0,0,0,0,0,0,0,0,0,0,0,0,0,0,0,0,0,0,0,0,0,0,0,0,0,0,0,0,0,0,0,0,0,0,0,0,0,0,0,0,0,0,0,0,0,0,0,0,0,0,0,0,0,0,0,0.0107,0.0107,0,0.0049,0.0049,0.0048,0.0014,0.0014,0.0014,0.0014,-0.0055,-0.0057,-0.0058,0,0,0,0,0,0,0,0,0,0,0,0,0,0.0167,0.0166,0.0107,0.0106,0.0106,0.0049,0.0049,0.0048,0.0014,0.0014,0.0014,0.0014,-0.0054,-0.0056,-0.0059,0,0,0,0,0,0,0,0,0,0,0,0,0,0.0128,0.0166,0.0107,0.0083,0.008,0.005,0.0048,0.0047,0.0014,0.0014,0.0014,0.0014,-0.0054,-0.0056,-0.0059,-0.0073,0,0,-0.0067,-0.0068,0,0,0,0,0,0,0,0,0.013,0.0126,0.0087,0.0084,0.0081,0.0039,0.0044,0.0007,0.0014,0.0038,0.0014,0.0014,-0.0024,-0.0029,-0.004,-0.0076,-0.0079,-0.0067,-0.0069,-0.007,-0.0071,0,0,0,0,0,0,0,0.0133,0.0128,0.0084,0.0086,0.0083,0.0067,0.0062,0.0037,0.0008,0.0036,0.0034,0.0029,-0.0026,-0.0038,-0.0042,-0.008,-0.0067,-0.0069,-0.0071,-0.0072,-0.0122,-0.0122,0,0,0,0,0,0,0.0142,0.013,0.0085,0.0082,0.0107,0.0067,0.006,0.0052,0.0008,0.0002,0.0029,0.0027,-0.0033,-0.0039,-0.0045,-0.0048,-0.007,-0.0072,-0.0074,-0.0123,-0.0122,-0.0122,0,0,0,0,0,0,0.0144,0.0139,0.0088,0.0106,0.0098,0.0066,0.0057,0.0051,0.0042,0.0003,-0.0004,0.0026,-0.0034,-0.0041,-0.0065,-0.0051,-0.0074,-0.0076,-0.0123,-0.0123,-0.0122,-0.0064,0,0,0,0,0,0,0.0146,0.014,0.014,0.0106,0.0097,0.0077,0.0057,0.005,0.0039,0.0037,-0.0002,-0.0008,-0.0034,-0.0061,-0.0067,-0.0055,-0.0078,-0.0123,-0.0123,-0.0122,-0.0066,-0.0062,-0.0058,0,0,0,0,0,0.0148,0.015,0.014,0.0135,0.0098,0.0077,0.0071,0.0047,0.004,0.0038,0.001,-0.0007,-0.0062,-0.0063,-0.0071,-0.0059,-0.0123,-0.0123,-0.0122,-0.0068,-0.0063,-0.0058,0,0,0,0,0,0,0.0177,0.0146,0.0134,0.0127,0.0107,0.0072,0.007,0.0053,0.0029,0.0029,-0.0009,-0.0017,-0.0032,-0.0056,-0.0055,-0.0073,-0.0094,-0.0095,-0.005,-0.0045,-0.0041,-0.0024,-0.008,0,0,0,0,0,0.0184,0.0178,0.0145,0.0142,0.0134,0.0103,0.0093,0.0077,0.0051,0.0041,0.0013,-0.0014,-0.0037,-0.0048,-0.0074,-0.0085,-0.011,-0.0082,-0.0078,-0.0074,-0.0066,-0.0098,-0.0096,-0.012,-0.012,-0.012,0,0,0.0195,0.0178,0.0174,0.0148,0.0131,0.0128,0.0097,0.0087,0.0086,0.0037,0.0028,-0.0002,-0.0037,-0.005,-0.0058,-0.0067,-0.008,-0.0073,-0.007,-0.0064,-0.0097,-0.0095,-0.0093,-0.012,-0.012,-0.012,0,0,0.0218,0.0199,0.0203,0.019,0.0169,0.0151,0.0151,0.0119,0.0107,0.0089,0.0059,0.0034,-0.0001,-0.0023,-0.0038,-0.0027,-0.0058,-0.0031,0.0006,-0.0025,-0.0023,-0.0022,-0.0047,-0.0049,-0.0027,-0.0027,-0.0027,0,0.0235,0.0232,0.0203,0.0205,0.0203,0.0166,0.0176,0.0156,0.0121,0.0117,0.0095,0.0047,0.0012,0.0002,0.0004,-0.0017,-0.0036,-0.0009,-0.0019,-0.0018,-0.0018,-0.0044,-0.0046,-0.0024,-0.0024,-0.0025,-0.0025,0,0.0259,0.0259,0.0263,0.0255,0.025,0.0251,0.0224,0.0216,0.0195,0.0175,0.0156,0.0103,0.0077,0.0062,0.0034,0.0028,0.0012,-0.001,-0.0029,-0.0012,-0.0041,-0.0044,-0.002,-0.0021,-0.0022,-0.0022,0,0,0.0292,0.0282,0.0284,0.0296,0.0278,0.028,0.028,0.0271,0.0281,0.0236,0.0241,0.0188,0.016,0.014,0.0102,0.0072,0.005,0.0039,0.0036,0.002,-0.0011,-0.0015,-0.0019,0.0028,0.0028,0.0028,-0.0031,0,0.0323,0.0343,0.0329,0.0359,0.037,0.0346,0.0352,0.0341,0.0323,0.0315,0.0259,0.0245,0.0191,0.0181,0.0142,0.0078,0.0044,0.0069,-0.003,-0.0033,-0.0034,-0.0022,0.0011,-0.0038,-0.0034,-0.0035,-0.0035,0,0.0353,0.0365,0.0397,0.0417,0.0421,0.0431,0.0448,0.0452,0.0429,0.0414,0.0385,0.0339,0.0293,0.0239,0.0137,0.0158,0.0081,0.0022,0.0018,-0.0007,-0.0043,-0.0056,-0.0045,-0.018,-0.0041,-0.0041,-0.004,0,0.0397,0.0417,0.0449,0.0453,0.0464,0.0479,0.0488,0.0482,0.0504,0.0481,0.0487,0.0418,0.0391,0.0287,0.0165,0.0151,0.0051,0.0012,-0.0066,-0.0067,-0.0069,-0.0069,-0.0194,-0.0065,-0.0065,-0.0065,-0.0065,0,0.0433,0.046,0.0472,0.0489,0.0536,0.053,0.0575,0.0575,0.0587,0.0625,0.0546,0.0557,0.0402,0.0324,0.0197,0.0068,0.0073,-0.0054,-0.0081,-0.0048,-0.0046,-0.0188,-0.0269,-0.0067,-0.0067,-0.0066,-0.0066,0,0.047,0.0474,0.0518,0.0543,0.0556,0.0594,0.0639,0.0677,0.0676,0.0722,0.0721,0.0665,0.0569,0.041,0.0246,0.0123,-0.0088,-0.0064,-0.0009,-0.0029,-0.0232,-0.0309,-0.0462,-0.0537,-0.0161,-0.0162,-0.0162,0,0.0488,0.0513,0.0563,0.0596,0.0608,0.0656,0.0696,0.0721,0.0773,0.0796,0.0833,0.0757,0.0731,0.0495,0.0264,0.0048,-0.0096,-0.0078,-0.0107,-0.0234,-0.0341,-0.0399,-0.0456,-0.009,-0.009,-0.0089,-0.0089,0,0.0528,0.0546,0.0582,0.065,0.0701,0.0763,0.0824,0.0881,0.0921,0.0964,0.1019,0.1004,0.0786,0.0595,0.0293,0.0136,-0.0168,-0.0081,-0.0229,-0.0306,-0.0361,-0.0447,-0.0063,-0.0087,-0.0087,-0.0088,-0.0088,-0.0088,0.0562,0.0596,0.0646,0.071,0.0777,0.0866,0.0923,0.1006,0.1104,0.1187,0.1169,0.1192,0.0902,0.0507,0.0262,-0.0148,-0.0177,-0.0272,-0.0358,-0.0408,-0.0474,-0.008,-0.0125,-0.0126,-0.0126,-0.0127,-0.0127,0,0.0604,0.0639,0.0701,0.0782,0.0861,0.0889,0.101,0.1081,0.1205,0.1307,0.1359,0.128,0.0909,0.0519,-0.0036,-0.0354,-0.0484,-0.0534,-0.0616,-0.0665,-0.0323,-0.0313,-0.0379,-0.0379,-0.0379,-0.0379,-0.0379,-0.0379,0.0627,0.0687,0.0715,0.0839,0.0899,0.1009,0.1081,0.1201,0.1308,0.145,0.1516,0.1542,0.13,0.0254,-0.0458,-0.0635,-0.0863,-0.0908,-0.1055,-0.0823,-0.0805,-0.0788,-0.0798,-0.0965,-0.0965,-0.1343,-0.1346,-0.1349]}],[{"header":{"parameterUnit":"m.s-1","parameterCategory":2,"la1":30.2991,"la2":30.254,"lo1":-89.0895,"lo2":-89.0444,"dy":0.0017,"dx":0.0017,"nx":28,"ny":28,"refTime":"2023-09-04T21:00:00:Z","depth":"2","parameterNumber":2,"parameterNumberName":"U-component_of_CURRENTS"},"data":[0,0,0,0,0,0,0,0,0,0,0,0,0,0,0,0,0,0,0,0,0,0,0,0,0,0,0,0,0,0,0,0,0,0,0,0,0,0,0,0,0,0,0,0,0,0,0,0,0,0,0,0,0,0,0,0,0,0,0.2323,0.2323,0,0.2333,0.2333,0.2333,0.2328,0.2328,0.2328,0.2328,0.2302,0.2302,0.2301,0,0,0,0,0,0,0,0,0,0,0,0,0,0.2293,0.2293,0.2323,0.2323,0.2323,0.2333,0.2333,0.2333,0.2328,0.2328,0.2328,0.2328,0.2302,0.2302,0.2301,0,0,0,0,0,0,0,0,0,0,0,0,0,0.2303,0.2293,0.2323,0.2324,0.2324,0.2333,0.2333,0.2333,0.2328,0.2328,0.2328,0.2328,0.2303,0.2302,0.2301,0.2297,0,0,0.2298,0.2298,0,0,0,0,0,0,0,0,0.2302,0.2303,0.2323,0.2324,0.2324,0.2331,0.2313,0.232,0.2328,0.2324,0.2328,0.2328,0.231,0.2308,0.2308,0.2296,0.2295,0.2298,0.2297,0.2297,0.2297,0,0,0,0,0,0,0,0.2301,0.2303,0.2325,0.2324,0.2324,0.2322,0.2323,0.2314,0.2315,0.2325,0.2325,0.2329,0.231,0.2309,0.2307,0.2295,0.2298,0.2297,0.2297,0.2296,0.2333,0.2334,0,0,0,0,0,0,0.2305,0.2302,0.2324,0.2325,0.2315,0.2322,0.2323,0.2327,0.2316,0.2315,0.2329,0.2329,0.2311,0.2308,0.2306,0.2338,0.2297,0.2296,0.2296,0.2331,0.2333,0.2335,0,0,0,0,0,0,0.2304,0.2307,0.2324,0.2316,0.2318,0.2323,0.2327,0.2327,0.2336,0.2321,0.2318,0.2339,0.231,0.2308,0.2316,0.2335,0.2296,0.2295,0.233,0.2332,0.2334,0.2377,0,0,0,0,0,0,0.2303,0.2306,0.2311,0.2316,0.2319,0.2339,0.2327,0.2328,0.234,0.2339,0.2328,0.2325,0.231,0.2318,0.2315,0.2333,0.2294,0.2328,0.2331,0.2333,0.2374,0.2381,0.2387,0,0,0,0,0,0.2302,0.2308,0.2311,0.2314,0.2325,0.234,0.2341,0.2342,0.234,0.2349,0.2346,0.2326,0.2334,0.2318,0.2314,0.2333,0.2326,0.233,0.2333,0.2371,0.2379,0.2386,0,0,0,0,0,0,0.2297,0.2309,0.2312,0.2321,0.2335,0.234,0.2348,0.235,0.2355,0.2356,0.2339,0.2336,0.2355,0.2341,0.2324,0.2356,0.233,0.2333,0.236,0.2367,0.2374,0.2382,0.2293,0,0,0,0,0,0.23,0.2308,0.2321,0.233,0.2339,0.2346,0.2353,0.2357,0.2362,0.2364,0.2357,0.2357,0.2366,0.2364,0.2367,0.2375,0.238,0.2389,0.2395,0.2401,0.2408,0.2437,0.2446,0.2346,0.2346,0.2346,0,0,0.2299,0.2309,0.2313,0.233,0.234,0.2352,0.235,0.2367,0.2379,0.236,0.2374,0.2379,0.2376,0.2393,0.24,0.2382,0.2434,0.2405,0.2409,0.2413,0.2441,0.2451,0.246,0.2348,0.2348,0.2348,0,0,0.2303,0.2315,0.2322,0.2336,0.2357,0.2364,0.2373,0.2387,0.2397,0.2412,0.2411,0.2431,0.2429,0.2438,0.2441,0.2484,0.2472,0.2487,0.2516,0.2544,0.2552,0.256,0.2585,0.2594,0.2483,0.2483,0.2483,0,0.2306,0.2313,0.2328,0.234,0.2354,0.2372,0.2385,0.2399,0.2414,0.2429,0.2423,0.2456,0.2452,0.2484,0.2504,0.2498,0.2511,0.2483,0.2552,0.2559,0.2566,0.2589,0.2599,0.2486,0.2486,0.2485,0.2485,0,0.2308,0.232,0.2329,0.2349,0.2368,0.2385,0.241,0.243,0.2445,0.246,0.2501,0.2508,0.2527,0.2535,0.2531,0.2582,0.2577,0.256,0.2529,0.2578,0.26,0.2609,0.2489,0.2489,0.2488,0.2487,0,0,0.2298,0.2325,0.2328,0.2339,0.2376,0.2389,0.2424,0.2459,0.249,0.2509,0.2548,0.2575,0.2588,0.2595,0.2599,0.2626,0.2688,0.2617,0.2617,0.2636,0.2756,0.2737,0.2745,0.2684,0.2686,0.2687,0.2754,0,0.2297,0.2315,0.2333,0.2356,0.237,0.2404,0.2437,0.2474,0.2513,0.2556,0.2582,0.2621,0.2607,0.263,0.2655,0.2686,0.2714,0.2672,0.271,0.2712,0.2685,0.2756,0.2542,0.2583,0.2763,0.2765,0.2766,0,0.2286,0.2305,0.2321,0.2364,0.2375,0.2394,0.2458,0.2492,0.2562,0.2598,0.2643,0.2666,0.2718,0.2698,0.2764,0.274,0.2756,0.2771,0.2773,0.2747,0.271,0.2563,0.2592,0.278,0.2779,0.2778,0.2777,0,0.2257,0.2294,0.2306,0.2318,0.2369,0.2392,0.2429,0.2502,0.2539,0.2632,0.2666,0.2729,0.2765,0.2797,0.283,0.2805,0.2903,0.2864,0.286,0.2858,0.268,0.266,0.2913,0.2913,0.2913,0.2912,0.2912,0,0.2239,0.2248,0.2292,0.2295,0.2322,0.2378,0.2421,0.2478,0.2563,0.2613,0.2681,0.2729,0.2795,0.2848,0.2863,0.2902,0.2928,0.2887,0.2884,0.2691,0.2672,0.2838,0.2828,0.2915,0.2914,0.2914,0.2913,0,0.2191,0.2218,0.2231,0.2285,0.23,0.2321,0.2392,0.2435,0.2528,0.2597,0.2626,0.2743,0.2828,0.2883,0.296,0.2945,0.2982,0.2984,0.276,0.273,0.2907,0.2899,0.2985,0.2985,0.2985,0.2985,0.2985,0,0.2162,0.2163,0.2203,0.2211,0.223,0.227,0.2303,0.2402,0.2457,0.2594,0.2627,0.2744,0.2814,0.2929,0.2948,0.2989,0.3011,0.28,0.2712,0.2931,0.2919,0.291,0.2903,0.2489,0.2485,0.2482,0.2479,0,0.211,0.2123,0.2135,0.2152,0.2176,0.2197,0.226,0.2287,0.2414,0.2482,0.2595,0.2665,0.2799,0.2766,0.2836,0.2819,0.2778,0.2736,0.3024,0.2515,0.2472,0.2458,0.2464,0.245,0.2453,0.2455,0.2457,0.2458,0.2066,0.2061,0.2077,0.2084,0.2107,0.2117,0.211,0.2191,0.2246,0.2323,0.2472,0.2511,0.2586,0.2593,0.2538,0.25,0.2687,0.2552,0.2557,0.2568,0.251,0.2471,0.2437,0.244,0.2442,0.2444,0.2446,0,0.2005,0.2007,0.2013,0.2008,0.1995,0.2038,0.2071,0.2053,0.2077,0.219,0.2267,0.2146,0.2148,0.2205,0.2123,0.2154,0.2085,0.2049,0.1927,0.1962,0.1991,0.1897,0.1665,0.1662,0.1659,0.1656,0,0,0.1973,0.1947,0.1945,0.1889,0.189,0.1842,0.1836,0.1831,0.1882,0.1875,0.1889,0.2059,0.2173,0.1884,0.1871,0.1751,0.1828,0.1682,0.2322,0.2217,0.2241,0.2313,0.2214,0,0,0,0,0]},{"header":{"parameterUnit":"m.s-1","parameterCategory":2,"la1":30.2991,"la2":30.254,"lo1":-89.0895,"lo2":-89.0444,"dy":0.0017,"dx":0.0017,"nx":28,"ny":28,"refTime":"2023-09-04T21:00:00:Z","depth":"2","parameterNumber":3,"parameterNumberName":"V-component_of_CURRENTS"},"data":[0,0,0,0,0,0,0,0,0,0,0,0,0,0,0,0,0,0,0,0,0,0,0,0,0,0,0,0,0,0,0,0,0,0,0,0,0,0,0,0,0,0,0,0,0,0,0,0,0,0,0,0,0,0,0,0,0,0,0.0026,0.0026,0,-0.0028,-0.0029,-0.003,-0.0062,-0.0062,-0.0062,-0.0062,-0.0123,-0.0125,-0.0126,0,0,0,0,0,0,0,0,0,0,0,0,0,0.0075,0.0074,0.0026,0.0026,0.0025,-0.0028,-0.0029,-0.003,-0.0062,-0.0062,-0.0062,-0.0062,-0.0123,-0.0124,-0.0126,0,0,0,0,0,0,0,0,0,0,0,0,0,0.004,0.0074,0.0027,0.0003,0.0001,-0.0028,-0.0029,-0.003,-0.0062,-0.0062,-0.0062,-0.0062,-0.0122,-0.0124,-0.0126,-0.0138,0,0,-0.0134,-0.0135,0,0,0,0,0,0,0,0,0.0042,0.0038,0.0007,0.0005,0.0002,-0.0038,-0.0034,-0.0066,-0.0062,-0.0039,-0.0062,-0.0062,-0.0095,-0.0099,-0.011,-0.0141,-0.0144,-0.0134,-0.0135,-0.0136,-0.0137,0,0,0,0,0,0,0,0.0044,0.004,0.0004,0.0007,0.0003,-0.0014,-0.0019,-0.0041,-0.0066,-0.0041,-0.0043,-0.0048,-0.0096,-0.0108,-0.0112,-0.0145,-0.0134,-0.0136,-0.0137,-0.0138,-0.0181,-0.0181,0,0,0,0,0,0,0.0054,0.0042,0.0006,0.0003,0.0023,-0.0015,-0.002,-0.0026,-0.0066,-0.0072,-0.0048,-0.0049,-0.0104,-0.0109,-0.0114,-0.0114,-0.0136,-0.0138,-0.014,-0.0181,-0.0181,-0.0181,0,0,0,0,0,0,0.0055,0.0051,0.0008,0.0022,0.0015,-0.0015,-0.0021,-0.0027,-0.0034,-0.0071,-0.0077,-0.005,-0.0104,-0.0111,-0.0131,-0.0117,-0.0139,-0.0141,-0.0181,-0.0181,-0.0181,-0.0124,0,0,0,0,0,0,0.0057,0.0052,0.0054,0.0022,0.0015,-0.0001,-0.0021,-0.0027,-0.0037,-0.004,-0.0074,-0.008,-0.0105,-0.0127,-0.0133,-0.0121,-0.0143,-0.0182,-0.0181,-0.0181,-0.0126,-0.0122,-0.0118,0,0,0,0,0,0.0059,0.0064,0.0055,0.005,0.0018,-0.0001,-0.0006,-0.0029,-0.0037,-0.0037,-0.0063,-0.0079,-0.0128,-0.0129,-0.0136,-0.0124,-0.0182,-0.0181,-0.0181,-0.0128,-0.0123,-0.0118,0,0,0,0,0,0,0.0086,0.0061,0.005,0.0047,0.0028,-0.0006,-0.0007,-0.0023,-0.0045,-0.0044,-0.008,-0.0088,-0.01,-0.0122,-0.0122,-0.0135,-0.0156,-0.0157,-0.0114,-0.0109,-0.0105,-0.0089,-0.0145,0,0,0,0,0,0.0094,0.0093,0.0063,0.0063,0.0055,0.0025,0.0016,0.0001,-0.0023,-0.0032,-0.0058,-0.0083,-0.0104,-0.0114,-0.0137,-0.0145,-0.017,-0.0141,-0.0137,-0.0134,-0.0126,-0.0157,-0.0155,-0.0179,-0.0179,-0.0179,0,0,0.0105,0.0092,0.0091,0.0069,0.0053,0.005,0.002,0.0011,0.0011,-0.0035,-0.0043,-0.0071,-0.0104,-0.0114,-0.012,-0.0129,-0.014,-0.0133,-0.0129,-0.0124,-0.0156,-0.0154,-0.0152,-0.0178,-0.0178,-0.0178,0,0,0.0131,0.0116,0.0123,0.0111,0.0091,0.0074,0.0075,0.0044,0.0033,0.0017,-0.0012,-0.0034,-0.0066,-0.0087,-0.0101,-0.0089,-0.0119,-0.0092,-0.0056,-0.0086,-0.0084,-0.0083,-0.0109,-0.0111,-0.0087,-0.0087,-0.0087,0,0.0146,0.0149,0.0123,0.0127,0.0125,0.0089,0.01,0.0081,0.0049,0.0045,0.0024,-0.0021,-0.0053,-0.0062,-0.0059,-0.0078,-0.0098,-0.007,-0.008,-0.0079,-0.0079,-0.0106,-0.0109,-0.0085,-0.0085,-0.0085,-0.0085,0,0.0173,0.0177,0.0181,0.0176,0.0172,0.0174,0.0148,0.0141,0.0122,0.0102,0.0084,0.0035,0.0011,-0.0003,-0.0029,-0.0035,-0.0051,-0.0072,-0.009,-0.0073,-0.0103,-0.0107,-0.0081,-0.0082,-0.0082,-0.0083,0,0,0.0206,0.0202,0.0204,0.0215,0.02,0.0202,0.0203,0.0195,0.0204,0.0162,0.0166,0.0118,0.0091,0.0073,0.0036,0.0008,-0.0013,-0.0024,-0.0027,-0.0045,-0.0075,-0.008,-0.0085,-0.0034,-0.0034,-0.0035,-0.0096,0,0.0236,0.0259,0.0248,0.0278,0.0289,0.0266,0.0273,0.0262,0.0245,0.0237,0.0184,0.0171,0.0121,0.0112,0.0075,0.0013,-0.002,0.0006,-0.0093,-0.0096,-0.0099,-0.0088,-0.0057,-0.0108,-0.01,-0.01,-0.0101,0,0.0267,0.028,0.0313,0.0333,0.0337,0.0348,0.0363,0.0367,0.0345,0.033,0.0304,0.026,0.0217,0.0167,0.0068,0.0089,0.0014,-0.0043,-0.0047,-0.0073,-0.0108,-0.0125,-0.0116,-0.0107,-0.0107,-0.0106,-0.0106,0,0.0308,0.0329,0.0362,0.0367,0.0378,0.0393,0.0402,0.0396,0.0417,0.0395,0.0401,0.0334,0.0309,0.0209,0.0092,0.008,-0.002,-0.0055,-0.0133,-0.0135,-0.0138,-0.0138,-0.0131,-0.0131,-0.0131,-0.013,-0.013,0,0.0343,0.0369,0.0384,0.0401,0.0446,0.0442,0.0485,0.0484,0.0496,0.0531,0.0457,0.0466,0.0319,0.0243,0.0121,-0.0005,0.0,-0.0122,-0.0149,-0.0117,-0.0115,-0.0139,-0.0139,-0.0133,-0.0132,-0.0132,-0.0131,0,0.0377,0.0385,0.0428,0.0453,0.0466,0.0502,0.0546,0.0582,0.0582,0.0624,0.0623,0.0568,0.0472,0.0321,0.0162,0.0045,-0.0085,-0.0136,-0.0085,-0.0105,-0.0192,-0.0188,-0.0233,-0.0234,-0.0234,-0.0235,-0.0235,0,0.0396,0.0421,0.0471,0.0503,0.0516,0.0562,0.06,0.0624,0.0672,0.0693,0.0726,0.0651,0.0618,0.0388,0.017,-0.0038,-0.0076,-0.0157,-0.0183,-0.0179,-0.0201,-0.0197,-0.0193,-0.0168,-0.0168,-0.0168,-0.0168,0,0.0433,0.0452,0.0487,0.0553,0.0603,0.0662,0.072,0.0773,0.081,0.0848,0.0892,0.0871,0.0659,0.0463,0.0175,0.0036,-0.0122,-0.0161,-0.0169,-0.0142,-0.0122,-0.0142,-0.014,-0.0166,-0.0167,-0.0167,-0.0167,-0.0167,0.0464,0.0496,0.0546,0.0609,0.0674,0.0758,0.0811,0.0885,0.0973,0.1038,0.1018,0.0995,0.0762,0.0412,0.0155,-0.0115,-0.0106,-0.0206,-0.0205,-0.0205,-0.0181,-0.0163,-0.021,-0.0211,-0.0211,-0.0211,-0.0212,0,0.0499,0.0535,0.0596,0.0674,0.075,0.078,0.0891,0.0949,0.1057,0.1122,0.1156,0.0951,0.0737,0.0464,0.0067,-0.0172,-0.0189,-0.0247,-0.022,-0.0218,-0.0218,-0.0195,-0.0228,-0.0229,-0.023,-0.0231,0,0,0.0518,0.0576,0.0604,0.0722,0.0783,0.0888,0.0955,0.1049,0.1121,0.1181,0.1182,0.1158,0.0836,0.0542,0.0218,-0.0011,-0.0061,-0.0051,-0.0007,0.0065,0.0068,-0.016,-0.0118,0,0,0,0,0]}],[{"header":{"parameterUnit":"m.s-1","parameterCategory":2,"la1":30.2991,"la2":30.254,"lo1":-89.0895,"lo2":-89.0444,"dy":0.0017,"dx":0.0017,"nx":28,"ny":28,"refTime":"2023-09-04T21:00:00:Z","depth":"4","parameterNumber":2,"parameterNumberName":"U-component_of_CURRENTS"},"data":[0,0,0,0,0,0,0,0,0,0,0,0,0,0,0,0,0,0,0,0,0,0,0,0,0,0,0,0,0,0,0,0,0,0,0,0,0,0,0,0,0,0,0,0,0,0,0,0,0,0,0,0,0,0,0,0,0,0,0.1548,0.1549,0,0.1609,0.1609,0.161,0.1663,0.1664,0.1665,0.1666,0.1729,0.173,0.1731,0,0,0,0,0,0,0,0,0,0,0,0,0,0.1445,0.1447,0.1548,0.1549,0.155,0.1609,0.161,0.161,0.1663,0.1664,0.1665,0.1666,0.1729,0.173,0.1731,0,0,0,0,0,0,0,0,0,0,0,0,0,0.1495,0.1447,0.1548,0.1585,0.1589,0.1609,0.161,0.161,0.1663,0.1664,0.1665,0.1667,0.1728,0.173,0.1731,0.1717,0,0,0.1736,0.1736,0,0,0,0,0,0,0,0,0.1492,0.1498,0.1578,0.1582,0.1587,0.1631,0.1597,0.1647,0.1663,0.1633,0.1666,0.1667,0.1697,0.1701,0.1707,0.172,0.1723,0.1736,0.1737,0.1737,0.1738,0,0,0,0,0,0,0,0.1488,0.1496,0.157,0.1579,0.1584,0.1587,0.1596,0.1606,0.1656,0.1636,0.164,0.1649,0.1699,0.1706,0.1709,0.1724,0.1736,0.1737,0.1738,0.1738,0.1832,0.1834,0,0,0,0,0,0,0.1485,0.1493,0.1568,0.1572,0.1543,0.1588,0.1598,0.1614,0.1656,0.1664,0.1648,0.1652,0.1703,0.1707,0.1712,0.1789,0.1737,0.1739,0.1739,0.1831,0.1833,0.1834,0,0,0,0,0,0,0.1483,0.1491,0.1566,0.1535,0.1545,0.1589,0.1607,0.1615,0.1657,0.1666,0.1674,0.1686,0.1704,0.171,0.1754,0.1788,0.1739,0.1741,0.1829,0.1831,0.1833,0.1884,0,0,0,0,0,0,0.1479,0.149,0.1516,0.1535,0.1546,0.1601,0.1607,0.1615,0.1659,0.1665,0.1701,0.1706,0.1705,0.1752,0.1755,0.1789,0.1742,0.1827,0.183,0.1833,0.188,0.1887,0.1894,0,0,0,0,0,0.1476,0.1501,0.1517,0.1527,0.1576,0.1602,0.1609,0.1642,0.166,0.1683,0.1711,0.1707,0.1774,0.1754,0.1758,0.1793,0.1825,0.1829,0.1832,0.1877,0.1886,0.1894,0,0,0,0,0,0,0.1466,0.1509,0.1528,0.1566,0.1594,0.1613,0.1643,0.166,0.1699,0.1716,0.1723,0.173,0.1782,0.1781,0.1759,0.183,0.18,0.1805,0.1833,0.1842,0.1848,0.1851,0.1743,0,0,0,0,0,0.1476,0.1515,0.1543,0.1578,0.1596,0.1625,0.1647,0.1669,0.1697,0.1718,0.1741,0.1768,0.1793,0.1813,0.1832,0.1867,0.1868,0.1895,0.1902,0.1907,0.1914,0.1942,0.1952,0.1846,0.1846,0.1846,0,0,0.1483,0.1512,0.1536,0.1581,0.1608,0.1634,0.1642,0.1686,0.1715,0.1716,0.1775,0.1795,0.1809,0.1853,0.1876,0.186,0.194,0.1912,0.1917,0.192,0.1947,0.1957,0.1966,0.1849,0.1848,0.1848,0,0,0.15,0.1544,0.1577,0.1603,0.1651,0.1666,0.1686,0.1724,0.1756,0.1803,0.1816,0.1859,0.1895,0.1913,0.1924,0.1981,0.1976,0.1995,0.2033,0.2061,0.207,0.2077,0.2095,0.2104,0.1998,0.1998,0.1998,0,0.1505,0.1552,0.1589,0.1619,0.1647,0.1684,0.1714,0.1745,0.1794,0.1822,0.1833,0.1906,0.1922,0.1969,0.1996,0.1997,0.201,0.1997,0.2069,0.2077,0.2084,0.21,0.2109,0.2001,0.2001,0.2,0.2,0,0.1536,0.1581,0.1603,0.1657,0.1689,0.1726,0.1765,0.1808,0.185,0.1877,0.1947,0.1973,0.2015,0.2032,0.2034,0.2096,0.2089,0.2074,0.2045,0.2097,0.2111,0.212,0.2005,0.2004,0.2003,0.2003,0,0,0.1518,0.1608,0.1619,0.1651,0.1716,0.1739,0.1797,0.1851,0.1897,0.195,0.2006,0.206,0.2085,0.21,0.2114,0.2144,0.2208,0.214,0.214,0.2152,0.2273,0.2142,0.2138,0.221,0.2212,0.2213,0.2264,0,0.1531,0.1595,0.1639,0.1698,0.1731,0.1784,0.1831,0.1888,0.1943,0.2006,0.2048,0.2108,0.2106,0.2144,0.2174,0.2204,0.2233,0.2196,0.2225,0.2226,0.2098,0.2144,0.2219,0.227,0.2272,0.2273,0.2274,0,0.1538,0.1584,0.1648,0.1726,0.1747,0.179,0.1878,0.1927,0.2012,0.206,0.2123,0.2157,0.2224,0.2212,0.2283,0.2264,0.2279,0.2291,0.2292,0.2157,0.211,0.2207,0.2289,0.2288,0.2287,0.2286,0.2285,0,0.1499,0.1585,0.1642,0.1669,0.176,0.1807,0.1862,0.195,0.1997,0.2106,0.2148,0.2224,0.2274,0.2308,0.2341,0.2325,0.2406,0.2377,0.2269,0.226,0.234,0.2331,0.2422,0.2422,0.2422,0.2422,0.2422,0,0.148,0.1526,0.1636,0.1663,0.1727,0.1803,0.1877,0.1946,0.2042,0.2092,0.2178,0.2219,0.2305,0.2353,0.2368,0.2344,0.2426,0.2282,0.2265,0.236,0.2353,0.2346,0.2336,0.2424,0.2423,0.2423,0.2422,0,0.1424,0.15,0.1563,0.1675,0.171,0.176,0.187,0.1919,0.2025,0.2095,0.2132,0.2239,0.2301,0.236,0.2426,0.2361,0.2363,0.2334,0.2444,0.2432,0.219,0.2183,0.2205,0.22,0.2197,0.2194,0.2191,0,0.14,0.1432,0.1554,0.1591,0.1648,0.173,0.178,0.1898,0.1946,0.2081,0.2101,0.2206,0.226,0.224,0.232,0.2334,0.2309,0.229,0.2224,0.2187,0.217,0.2168,0.2166,0.2186,0.2185,0.2184,0.2183,0,0.1343,0.1404,0.1457,0.1534,0.1599,0.1649,0.1735,0.1748,0.1877,0.1987,0.2018,0.2046,0.2111,0.2154,0.2188,0.2192,0.2289,0.2252,0.2258,0.2197,0.2165,0.215,0.2152,0.2171,0.2172,0.2174,0.2174,0,0.1303,0.1324,0.1404,0.1455,0.1529,0.1547,0.1599,0.165,0.1702,0.1852,0.1862,0.1973,0.2089,0.2081,0.2111,0.2109,0.207,0.1994,0.2013,0.2027,0.1946,0.1878,0.1786,0,0,0,0,0,0.125,0.1267,0.1315,0.1361,0.1428,0.1468,0.1558,0.1613,0.1729,0.1708,0.1777,0.1828,0.1864,0.1927,0.1889,0.2037,0.2083,0.1984,0.2005,0.2102,0.2117,0.2037,0,0,0,0,0,0,0.1216,0.1265,0.1281,0.1268,0.1282,0.1337,0.1387,0.1469,0.1461,0.1589,0.1621,0.1724,0.1792,0.187,0.1857,0.1877,0.1853,0.2063,0.2059,0.2094,0.2107,0.2119,0.2042,0,0,0,0,0]},{"header":{"parameterUnit":"m.s-1","parameterCategory":2,"la1":30.2991,"la2":30.254,"lo1":-89.0895,"lo2":-89.0444,"dy":0.0017,"dx":0.0017,"nx":28,"ny":28,"refTime":"2023-09-04T21:00:00:Z","depth":"4","parameterNumber":3,"parameterNumberName":"V-component_of_CURRENTS"},"data":[0,0,0,0,0,0,0,0,0,0,0,0,0,0,0,0,0,0,0,0,0,0,0,0,0,0,0,0,0,0,0,0,0,0,0,0,0,0,0,0,0,0,0,0,0,0,0,0,0,0,0,0,0,0,0,0,0,0,0.0008,0.0007,0,-0.0031,-0.0032,-0.0032,-0.0061,-0.0061,-0.0062,-0.0062,-0.0107,-0.0108,-0.0109,0,0,0,0,0,0,0,0,0,0,0,0,0,0.0038,0.0038,0.0008,0.0007,0.0007,-0.0031,-0.0032,-0.0033,-0.0061,-0.0061,-0.0062,-0.0062,-0.0107,-0.0108,-0.0109,0,0,0,0,0,0,0,0,0,0,0,0,0,0.0014,0.0038,0.0008,-0.0012,-0.0014,-0.0031,-0.0032,-0.0033,-0.0061,-0.0061,-0.0062,-0.0062,-0.0106,-0.0108,-0.0109,-0.0112,0,0,-0.0114,-0.0114,0,0,0,0,0,0,0,0,0.0016,0.0013,-0.0008,-0.001,-0.0013,-0.0041,-0.0038,-0.0059,-0.0061,-0.0043,-0.0062,-0.0062,-0.0085,-0.0088,-0.0095,-0.0114,-0.0116,-0.0114,-0.0115,-0.0115,-0.0116,0,0,0,0,0,0,0,0.0017,0.0014,-0.0008,-0.0009,-0.0012,-0.0025,-0.0029,-0.0042,-0.0062,-0.0045,-0.0047,-0.0051,-0.0086,-0.0094,-0.0097,-0.0117,-0.0114,-0.0115,-0.0116,-0.0117,-0.0143,-0.0143,0,0,0,0,0,0,0.0024,0.0016,-0.0007,-0.0009,0.0001,-0.0026,-0.003,-0.0032,-0.0062,-0.0067,-0.0051,-0.0052,-0.0091,-0.0095,-0.0098,-0.0097,-0.0115,-0.0117,-0.0118,-0.0144,-0.0143,-0.0143,0,0,0,0,0,0,0.0025,0.0023,-0.0005,0.0003,-0.0002,-0.0026,-0.0028,-0.0033,-0.004,-0.0066,-0.0071,-0.0053,-0.0092,-0.0096,-0.011,-0.0099,-0.0118,-0.0119,-0.0144,-0.0143,-0.0143,-0.0097,0,0,0,0,0,0,0.0026,0.0023,0.0026,0.0003,-0.0002,-0.0011,-0.0028,-0.0033,-0.0042,-0.0044,-0.007,-0.0075,-0.0092,-0.0108,-0.0112,-0.0101,-0.012,-0.0144,-0.0144,-0.0143,-0.0099,-0.0095,-0.0092,0,0,0,0,0,0.0027,0.0034,0.0026,0.0024,0.0002,-0.0011,-0.0014,-0.0033,-0.0041,-0.0041,-0.0061,-0.0074,-0.0108,-0.0109,-0.0113,-0.0103,-0.0144,-0.0144,-0.0143,-0.0101,-0.0096,-0.0093,0,0,0,0,0,0,0.0049,0.0031,0.0022,0.0023,0.0009,-0.0015,-0.0015,-0.0029,-0.0045,-0.0046,-0.0073,-0.0078,-0.0087,-0.0102,-0.0102,-0.0111,-0.0128,-0.0128,-0.0093,-0.009,-0.0086,-0.0075,-0.0121,0,0,0,0,0,0.0055,0.0057,0.0035,0.0037,0.0032,0.0009,0.0002,-0.001,-0.0028,-0.0035,-0.0055,-0.0074,-0.0089,-0.0095,-0.0112,-0.0115,-0.0136,-0.0112,-0.0108,-0.0105,-0.0099,-0.0126,-0.0125,-0.0142,-0.0142,-0.0142,0,0,0.0065,0.0056,0.0057,0.0042,0.003,0.003,0.0004,-0.0001,-0.0001,-0.0037,-0.0042,-0.0064,-0.0088,-0.0094,-0.0098,-0.0104,-0.0111,-0.0105,-0.0102,-0.0097,-0.0125,-0.0124,-0.0122,-0.0141,-0.0141,-0.0141,0,0,0.0086,0.0077,0.0084,0.0075,0.0061,0.0049,0.0049,0.0026,0.0016,0.0007,-0.0018,-0.0035,-0.0056,-0.0071,-0.0081,-0.007,-0.0095,-0.0073,-0.0043,-0.0069,-0.0067,-0.0067,-0.009,-0.0091,-0.0068,-0.0068,-0.0068,0,0.0099,0.0103,0.0084,0.0088,0.0088,0.006,0.0069,0.0056,0.0032,0.0029,0.0012,-0.0022,-0.0045,-0.005,-0.0047,-0.0061,-0.008,-0.0054,-0.0064,-0.0063,-0.0063,-0.0087,-0.009,-0.0066,-0.0066,-0.0066,-0.0066,0,0.0121,0.0125,0.013,0.0128,0.0126,0.0129,0.0111,0.0106,0.009,0.0075,0.0062,0.0025,0.0007,-0.0003,-0.0022,-0.0027,-0.0042,-0.0059,-0.0072,-0.0059,-0.0085,-0.0088,-0.0062,-0.0063,-0.0064,-0.0064,0,0,0.0144,0.0146,0.0148,0.0157,0.0148,0.0151,0.0154,0.015,0.0157,0.0126,0.0128,0.0094,0.0072,0.0059,0.0031,0.0008,-0.0011,-0.0019,-0.0021,-0.0037,-0.0066,-0.0069,-0.0073,-0.0029,-0.003,-0.003,-0.0084,0,0.0166,0.0187,0.0182,0.0207,0.0216,0.0202,0.021,0.0204,0.0191,0.0186,0.0146,0.0136,0.0097,0.0091,0.0061,0.0008,-0.0018,0.0005,-0.008,-0.0082,-0.0083,-0.0076,-0.0031,-0.0087,-0.0087,-0.0088,-0.0088,0,0.0187,0.02,0.0229,0.0248,0.0252,0.0265,0.028,0.0285,0.0271,0.026,0.024,0.0206,0.0172,0.0133,0.0051,0.0068,0.0007,-0.004,-0.0043,-0.0063,-0.0091,-0.0104,-0.0095,-0.0094,-0.0094,-0.0093,-0.0093,0,0.0212,0.0234,0.0262,0.0267,0.0283,0.0298,0.0309,0.0309,0.0328,0.0312,0.0316,0.0264,0.0243,0.0161,0.0065,0.0058,-0.0031,-0.0056,-0.0117,-0.0118,-0.012,-0.0121,-0.0118,-0.0118,-0.0118,-0.0118,-0.0118,0,0.0234,0.0256,0.0277,0.0292,0.0332,0.0334,0.0372,0.0375,0.039,0.0417,0.036,0.0363,0.0249,0.0184,0.0085,-0.0019,-0.0017,-0.0109,-0.0131,-0.01,-0.0097,-0.0123,-0.0122,-0.012,-0.0119,-0.0119,-0.0119,0,0.025,0.0263,0.03,0.0329,0.0344,0.0375,0.0422,0.0452,0.0456,0.0489,0.0489,0.0442,0.0357,0.0236,0.0104,0.0018,-0.009,-0.0131,-0.008,-0.0099,-0.0167,-0.0164,-0.0204,-0.0204,-0.0205,-0.0205,-0.0205,0,0.0259,0.028,0.0331,0.036,0.0376,0.0419,0.0455,0.0484,0.052,0.0538,0.0558,0.0495,0.044,0.0264,0.0126,-0.006,-0.0094,-0.0154,-0.0171,-0.0157,-0.0175,-0.0171,-0.0168,-0.0206,-0.0206,-0.0206,-0.0206,0,0.0275,0.0297,0.0327,0.0388,0.0435,0.0488,0.0539,0.0573,0.0609,0.0614,0.0618,0.0527,0.0429,0.0279,0.0135,-0.0002,-0.0117,-0.016,-0.016,-0.0176,-0.016,-0.0177,-0.0173,-0.0208,-0.0208,-0.0207,-0.0207,0,0.0289,0.0313,0.0359,0.0412,0.0478,0.0541,0.0563,0.0606,0.0646,0.0665,0.0667,0.056,0.0503,0.031,0.0179,0.0043,-0.0002,-0.0059,-0.0065,-0.0065,-0.0016,0.0025,0.0021,0,0,0,0,0,0.0297,0.0325,0.0377,0.0439,0.0508,0.0546,0.0617,0.0637,0.067,0.0683,0.0679,0.0589,0.0406,0.0334,0.0198,0.0148,-0.004,-0.0019,-0.0112,-0.0216,-0.0214,-0.0181,0,0,0,0,0,0,0.03,0.0347,0.0374,0.0457,0.0502,0.058,0.0628,0.0651,0.0657,0.067,0.0582,0.0541,0.0367,0.0483,0.0191,0.0151,0.0069,-0.0101,-0.0105,-0.0217,-0.0216,-0.0214,-0.0179,0,0,0,0,0]}]]